Weather History for K4A6 - September, 2014

Change the Weather History Date:

Monday, September 1, 2014

  Actual Average (KHSV) Record (KHSV)
Temperature  
Mean Temperature 80 °F 78 °F  
Max Temperature 89 °F 89 °F 101 °F (1951)
Min Temperature 71 °F 67 °F 48 °F (1946)
Degree Days  
Heating Degree Days 0 0  
Month to date heating degree days 0  
Since 1 July heating degree days 0  
Cooling Degree Days 15 13  
Month to date cooling degree days 13  
Year to date cooling degree days 1608  
Growing Degree Days 30 (Base 50)    
Moisture  
Dew Point 72 °F    
Average Humidity 85    
Maximum Humidity 100    
Minimum Humidity 49    
Precipitation  
Precipitation 0.00 in 0.10 in 2.56 in (1976)
Month to date precipitation 0.10  
Year to date precipitation 36.42  
Snow  
Snow 0.00 in - - ()
Month to date snowfall  
Since 1 July snowfall  
Since 1 September snowfall  
Snow Depth -    
Sea Level Pressure  
Sea Level Pressure 30.09 in    
Wind  
Wind Speed 1 mph (WSW)    
Max Wind Speed 10 mph    
Max Gust Speed 16 mph    
Visibility 7 miles    
Events Fog    
T = Trace of Precipitation, MM = Missing Value Source: NWS Daily Summary

Daily Weather History Graph

Daily Weather History Graph

Search for Another Location

Airport or City:

Trip Planner

Search our weather history database for the weather conditions in past years. The results will help you decide how hot, cold, wet, or windy it might be!

Date:

Astronomy

Sep. 01, 2014 Rise Set
Actual Time 6:17 AM CDT 7:10 PM CDT
Civil Twilight 5:51 AM CDT 7:36 PM CDT
Nautical Twilight 5:20 AM CDT 8:06 PM CDT
Astronomical Twilight 4:49 AM CDT 8:37 PM CDT
Moon 12:45 PM CDT (9/1) 11:27 PM CDT (9/1)
Length of Visible Light 13h 44m
Length of Day
12h 53m
Waxing Crescent, 42% of the Moon is Illuminated
Sep 1
Waxing Crescent
Sep 2
First Quarter
Sep 8
Full
Sep 15
Last Quarter
Sep 24
New

Hourly Weather History & Observations

Time (CDT) Temp. Heat Index Dew Point Humidity Pressure Visibility Wind Dir Wind Speed Gust Speed Precip Events Conditions
12:15 AM 73.4 °F - 73.4 °F 100% 30.09 in 4.0 mi Calm Calm - N/A   Overcast
12:35 AM 73.4 °F - 73.4 °F 100% 30.09 in 6.0 mi Calm Calm - N/A   Overcast
12:55 AM 73.4 °F - 73.4 °F 100% 30.09 in 2.5 mi Calm Calm - N/A   Mostly Cloudy
1:15 AM 73.4 °F - 73.4 °F 100% 30.09 in 4.0 mi Calm Calm - N/A   Overcast
1:35 AM 73.4 °F - 73.4 °F 100% 30.09 in 6.0 mi Calm Calm - N/A   Overcast
2:15 AM 71.6 °F - 71.6 °F 100% 30.10 in 3.0 mi Calm Calm - N/A   Overcast
2:35 AM 71.6 °F - 71.6 °F 100% 30.09 in 2.0 mi Calm Calm - N/A   Overcast
2:55 AM 71.6 °F - 71.6 °F 100% 30.10 in 2.0 mi Calm Calm - N/A   Mist
3:15 AM 71.6 °F - 71.6 °F 100% 30.10 in 9.0 mi NNE 3.5 mph - N/A   Unknown
3:35 AM 71.6 °F - 71.6 °F 100% 30.10 in 5.0 mi Calm Calm - N/A   Overcast
3:55 AM 71.6 °F - 71.6 °F 100% 30.10 in 9.0 mi Calm Calm - N/A   Overcast
4:15 AM 71.6 °F - 71.6 °F 100% 30.10 in 2.5 mi NE 3.5 mph - N/A   Overcast
4:35 AM 71.6 °F - 71.6 °F 100% 30.11 in 2.0 mi Calm Calm - N/A   Overcast
5:15 AM 71.6 °F - 71.6 °F 100% 30.11 in 0.2 mi Calm Calm - N/A Fog Fog
5:35 AM 71.6 °F - 71.6 °F 100% 30.11 in 0.2 mi Calm Calm - N/A Fog Fog
5:55 AM 71.6 °F - 71.6 °F 100% 30.11 in 0.2 mi Calm Calm - N/A Fog Fog
6:15 AM 71.6 °F - 71.6 °F 100% 30.12 in 0.5 mi Calm Calm - N/A Fog Fog
6:35 AM 71.6 °F - 71.6 °F 100% 30.12 in 0.2 mi Calm Calm - N/A Fog Fog
6:55 AM 71.6 °F - 71.6 °F 100% 30.12 in 0.2 mi NNE 3.5 mph - N/A Fog Fog
7:15 AM 71.6 °F - 71.6 °F 100% 30.13 in 0.2 mi NNE 3.5 mph - N/A Fog Fog
7:35 AM 71.6 °F - 71.6 °F 100% 30.13 in 0.2 mi Calm Calm - N/A Fog Fog
7:55 AM 71.6 °F - 71.6 °F 100% 30.13 in 0.2 mi Calm Calm - N/A Fog Fog
8:15 AM 71.6 °F - 71.6 °F 100% 30.13 in 0.2 mi Calm Calm - N/A Fog Fog
8:35 AM 71.6 °F - 71.6 °F 100% 30.13 in 1.0 mi Calm Calm - N/A   Overcast
8:55 AM 73.4 °F - 73.4 °F 100% 30.13 in 4.0 mi Calm Calm - N/A   Overcast
9:15 AM 73.4 °F - 73.4 °F 100% 30.14 in 8.0 mi Calm Calm - N/A   Scattered Clouds
9:35 AM 77.0 °F - 75.2 °F 94% 30.13 in 9.0 mi Calm Calm - N/A   Clear
10:15 AM 80.6 °F 85.4 °F 73.4 °F 79% 30.14 in 10.0 mi WSW 3.5 mph - N/A   Clear
10:35 AM 82.4 °F 88.2 °F 73.4 °F 74% 30.13 in 9.0 mi South 3.5 mph - N/A   Clear
11:15 AM 84.2 °F 90.9 °F 73.4 °F 70% 30.13 in 9.0 mi WSW 3.5 mph - N/A   Clear
11:35 AM 84.2 °F 90.9 °F 73.4 °F 70% 30.13 in 10.0 mi SW 5.8 mph - N/A   Scattered Clouds
11:55 AM 86.0 °F 95.1 °F 75.2 °F 70% 30.13 in 9.0 mi SSW 3.5 mph - N/A   Partly Cloudy
12:35 PM 86.0 °F 93.4 °F 73.4 °F 66% 30.12 in 9.0 mi WSW 5.8 mph - N/A   Scattered Clouds
12:55 PM 86.0 °F 93.4 °F 73.4 °F 66% 30.11 in 9.0 mi SW 5.8 mph - N/A   Scattered Clouds
1:15 PM 86.0 °F 93.4 °F 73.4 °F 66% 30.11 in 9.0 mi SSW 3.5 mph - N/A   Scattered Clouds
1:35 PM 86.0 °F 93.4 °F 73.4 °F 66% 30.10 in 9.0 mi SSW 5.8 mph - N/A   Scattered Clouds
1:55 PM 87.8 °F 93.8 °F 71.6 °F 58% 30.09 in 9.0 mi SW 4.6 mph - N/A   Scattered Clouds
2:15 PM 89.6 °F 96.2 °F 71.6 °F 55% 30.08 in 9.0 mi West 8.1 mph - N/A   Partly Cloudy
2:35 PM 89.6 °F 96.2 °F 71.6 °F 55% 30.08 in 9.0 mi SW 10.4 mph 16.1 mph N/A   Partly Cloudy
3:15 PM 89.6 °F 96.2 °F 71.6 °F 55% 30.07 in 9.0 mi SSW 6.9 mph - N/A   Clear
3:35 PM 89.6 °F 96.2 °F 71.6 °F 55% 30.06 in 10.0 mi WSW 5.8 mph - N/A   Clear
3:55 PM 89.6 °F 96.2 °F 71.6 °F 55% 30.06 in 10.0 mi WSW 6.9 mph 16.1 mph N/A   Partly Cloudy
4:15 PM 89.6 °F 93.4 °F 68.0 °F 49% 30.05 in 10.0 mi West 5.8 mph - N/A   Partly Cloudy
4:35 PM 89.6 °F 93.4 °F 68.0 °F 49% 30.05 in 10.0 mi West 8.1 mph - N/A   Clear
4:55 PM 89.6 °F 93.4 °F 68.0 °F 49% 30.05 in 10.0 mi WSW 8.1 mph - N/A   Clear
5:15 PM 89.6 °F 93.4 °F 68.0 °F 49% 30.04 in 9.0 mi West 5.8 mph - N/A   Clear
5:35 PM 89.6 °F 94.7 °F 69.8 °F 52% 30.03 in 10.0 mi Calm Calm - N/A   Clear
5:55 PM 87.8 °F 93.8 °F 71.6 °F 58% 30.03 in 10.0 mi West 3.5 mph - N/A   Clear
6:15 PM 87.8 °F 92.6 °F 69.8 °F 55% 30.04 in 10.0 mi Calm Calm - N/A   Clear
6:35 PM 84.2 °F 92.3 °F 75.2 °F 74% 30.04 in 10.0 mi Calm Calm - N/A   Clear
6:55 PM 82.4 °F 89.5 °F 75.2 °F 79% 30.04 in 10.0 mi Calm Calm - N/A   Clear
7:15 PM 78.8 °F - 75.2 °F 89% 30.04 in 10.0 mi Calm Calm - N/A   Clear
7:35 PM 77.0 °F - 73.4 °F 89% 30.05 in 10.0 mi Calm Calm - N/A   Clear
7:55 PM 77.0 °F - 73.4 °F 89% 30.05 in 10.0 mi Calm Calm - N/A   Clear
8:15 PM 77.0 °F - 73.4 °F 89% 30.06 in 10.0 mi Calm Calm - N/A   Partly Cloudy
8:35 PM 77.0 °F - 73.4 °F 89% 30.07 in 10.0 mi Calm Calm - N/A   Partly Cloudy
8:55 PM 75.2 °F - 73.4 °F 94% 30.07 in 10.0 mi Calm Calm - N/A   Partly Cloudy
9:15 PM 75.2 °F - 73.4 °F 94% 30.08 in 10.0 mi Calm Calm - N/A   Partly Cloudy
9:35 PM 75.2 °F - 73.4 °F 94% 30.08 in 10.0 mi Calm Calm - N/A   Clear
9:55 PM 75.2 °F - 73.4 °F 94% 30.08 in 10.0 mi Calm Calm - N/A   Clear
10:15 PM 75.2 °F - 73.4 °F 94% 30.08 in 10.0 mi Calm Calm - N/A   Unknown
10:35 PM 73.4 °F - 73.4 °F 100% 30.07 in 10.0 mi Calm Calm - N/A   Clear
10:55 PM 73.4 °F - 73.4 °F 100% 30.08 in 10.0 mi NE 4.6 mph - N/A   Clear
11:15 PM 73.4 °F - 73.4 °F 100% 30.07 in 9.0 mi Calm Calm - N/A   Clear
11:35 PM 73.4 °F - 73.4 °F 100% 30.07 in 7.0 mi Calm Calm - N/A   Clear
11:55 PM 73.4 °F - 73.4 °F 100% 30.07 in 9.0 mi Calm Calm - N/A   Clear